Location: Stara Lesna
(49.1528°N, 20.2911°E)
Time: 10:08:47
(UTC+02:00)

Cosmos 1703 Rocket - Pass Details

Date: 13 July 2020
Orbit: 605 x 633 km, 82.5° (Epoch: 05 August)

Event Time Altitude Azimuth Distance (km) Brightness Sun altitude
Rises 02:12:01 0° 348° (NNW) 2,937 8.0 -16.4°
Reaches altitude 10° 02:14:17 10° 346° (NNW) 2,021 7.0 -16.3°
Maximum altitude 02:18:44 68° 263° (W) 678 3.6 -16.0°
Enters shadow 02:21:00 28° 188° (S) 1,184 4.4 -15.9°
